Date String (YYYY-MM-DD hh:mm:ss) UTC,Instrument flags,absolute air pressure of the measurement (hPa),sample flow rate (lpm),inlet stack bypass flow (lpm),air temperature of the measurement (°C),ambient temperature measured by the external sensor (°C),aerosol sample conditioner tube jacket temperature (°C),OPC LED temperature (°C),internal box temperature (°C),relative humidity of the measurement (%),span deviation,mass concentration of particles derived from Lorenz-Mie calculation of OPC scattering (μg/m³),mass concentration of particles derived from Lorenz-Mie calculation of OPC scattering (μg/m³),mass concentration of particles derived from Lorenz-Mie calculation of OPC scattering (μg/m³)
DateTimeUTC,F1_M11,P_M11,Q1_M11,Q2_M11,T1_M11,T2_M11,T3_M11,T4_M11,T5_M11,U1_M11,ZSPAN_M11,X0_M11,X2_M11,X1_M11
2024-01-11 17:00:00,SystemResetWarning,0814.6,5.00,000.00,018.9,018.1,000.0,027.3,020.0,10.3,0000.0,0003.37,0001.51,0001.16
2024-01-11 17:01:00,SystemResetWarning,0814.7,5.00,000.00,018.8,017.9,000.0,027.3,020.0,10.3,0000.0,0004.51,0001.62,0001.27
2024-01-11 17:02:00,SystemResetWarning,0814.7,5.00,000.00,018.8,017.8,000.0,027.3,020.0,10.3,0000.0,0004.72,0001.77,0001.38
2024-01-11 17:03:00,SystemResetWarning,0814.7,5.00,000.00,018.8,017.8,000.0,027.3,020.0,10.3,0000.0,0004.76,0001.88,0001.49
2024-01-11 17:04:00,SystemResetWarning,0814.7,5.00,000.00,018.8,017.7,000.0,027.3,020.0,10.3,0000.0,0004.82,0001.99,0001.60
2024-01-11 17:05:00,SystemResetWarning,0814.7,5.00,000.00,018.8,017.6,000.0,027.3,020.0,10.3,0000.0,0004.93,0002.09,0001.70
2024-01-11 17:06:00,SystemResetWarning,0814.6,5.00,000.00,018.8,017.6,000.0,027.3,020.0,10.4,0000.0,0005.11,0002.23,0001.81
2024-01-11 17:07:00,SystemResetWarning,0814.7,5.00,000.00,018.8,017.5,000.0,027.3,020.0,10.4,0000.0,0005.25,0002.33,0001.92
2024-01-11 17:08:00,SystemResetWarning,0814.7,5.00,000.00,018.8,017.5,000.0,027.3,020.0,10.5,0000.0,0005.50,0002.46,0002.03
2024-01-11 17:09:00,SystemResetWarning,0814.6,5.00,000.00,018.8,017.5,000.0,027.3,020.0,10.5,0000.0,0005.76,0002.60,0002.13
2024-01-11 17:10:00,SystemResetWarning,0814.6,5.00,000.00,018.8,017.5,000.0,027.3,020.0,10.6,0000.0,0006.10,0002.72,0002.25
2024-01-11 17:11:00,SystemResetWarning,0814.7,5.00,000.00,018.8,017.6,000.0,027.3,020.0,10.7,0000.0,0006.77,0002.83,0002.36
2024-01-11 17:12:00,SystemResetWarning,0814.7,5.00,000.00,018.7,017.6,000.0,027.3,020.0,10.7,0000.0,0007.12,0002.94,0002.44
2024-01-11 17:13:00,SystemResetWarning,0814.7,5.01,000.00,018.7,017.6,000.0,027.3,020.0,10.7,0000.0,0007.47,0003.00,0002.49
2024-01-11 17:14:00,SystemResetWarning,0814.8,5.00,000.00,018.7,017.6,000.0,027.3,020.0,10.7,0000.0,0007.46,0003.02,0002.52
2024-01-11 17:15:00,SystemResetWarning,0814.8,5.01,000.00,018.8,017.9,000.0,027.2,020.2,10.8,0000.0,0007.57,0003.10,0002.56
2024-01-11 17:16:00,SystemResetWarning,0814.9,5.00,000.00,018.9,018.7,000.0,027.2,020.7,10.7,0000.0,0007.88,0003.17,0002.62
2024-01-11 17:17:00,SystemResetWarning,0814.9,5.00,000.00,019.0,019.3,000.0,027.3,020.8,10.7,0000.0,0008.89,0003.25,0002.70
2024-01-11 17:18:00,SystemResetWarning,0814.9,4.98,000.00,019.1,019.2,000.0,027.2,020.5,10.6,0000.0,0009.34,0003.35,0002.78
2024-01-11 17:19:00,SystemResetWarning,0815.0,4.99,000.00,019.0,019.0,000.0,027.3,020.3,10.7,0000.0,0010.06,0003.43,0002.84
2024-01-11 17:20:00,SystemResetWarning,0815.0,5.02,000.00,019.0,018.8,000.0,027.3,020.1,10.7,0000.0,0010.00,0003.43,0002.88
2024-01-11 17:21:00,SystemResetWarning,0814.9,5.00,000.00,019.0,018.7,000.0,027.2,020.0,10.7,0000.0,0010.02,0003.48,0002.90
2024-01-11 17:22:00,SystemResetWarning,0814.9,4.99,000.00,019.0,018.5,000.0,027.3,020.0,10.8,0000.0,0010.00,0003.53,0002.93
2024-01-11 17:23:00,SystemResetWarning,0814.9,5.00,000.00,018.9,018.4,000.0,027.3,020.0,10.8,0000.0,0009.47,0003.59,0002.98
2024-01-11 17:24:00,SystemResetWarning,0814.9,5.00,000.00,018.9,018.3,000.0,027.3,020.0,10.8,0000.0,0009.32,0003.63,0003.03
2024-01-11 17:25:00,SystemResetWarning,0814.9,5.00,000.00,018.9,018.2,000.0,027.3,020.0,10.8,0000.0,0009.42,0003.67,0003.09
2024-01-11 17:26:00,SystemResetWarning,0814.9,5.00,000.00,018.9,018.2,000.0,027.3,020.0,10.9,0000.0,0009.63,0003.75,0003.15
2024-01-11 17:27:00,SystemResetWarning,0814.9,5.00,000.00,018.9,018.0,000.0,027.3,020.0,10.9,0000.0,0010.11,0003.81,0003.18
2024-01-11 17:28:00,SystemResetWarning,0814.9,5.00,000.00,018.9,017.7,000.0,027.3,020.0,10.9,0000.0,0009.96,0003.84,0003.18
2024-01-11 17:29:00,SystemResetWarning,0814.9,5.00,000.00,018.9,017.6,000.0,027.3,020.0,10.9,0000.0,0010.23,0003.86,0003.19
2024-01-11 17:30:00,SystemResetWarning,0814.9,5.00,000.00,018.8,017.6,000.0,027.3,020.0,11.0,0000.0,0009.74,0003.84,0003.20
2024-01-11 17:31:00,SystemResetWarning,0814.9,5.00,000.00,018.8,017.6,000.0,027.3,020.0,10.9,0000.0,0009.89,0003.85,0003.20
2024-01-11 17:32:00,SystemResetWarning,0814.9,5.00,000.00,018.8,017.6,000.0,027.3,020.0,11.0,0000.0,0010.10,0003.85,0003.19
2024-01-11 17:33:00,SystemResetWarning,0814.9,5.00,000.00,018.8,017.6,000.0,027.3,020.0,10.9,0000.0,0010.20,0003.82,0003.16
2024-01-11 17:34:00,SystemResetWarning,0814.9,5.00,000.00,018.8,017.6,000.0,027.3,020.0,11.0,0000.0,0009.93,0003.78,0003.12
2024-01-11 17:35:00,SystemResetWarning,0814.9,5.00,000.00,018.8,017.6,000.0,027.3,020.0,11.0,0000.0,0010.27,0003.79,0003.08
2024-01-11 17:36:00,SystemResetWarning,0814.9,5.01,000.00,018.8,017.6,000.0,027.3,020.0,11.0,0000.0,0010.81,0003.79,0003.04
2024-01-11 17:37:00,SystemResetWarning,0814.9,5.00,000.00,018.8,017.6,000.0,027.3,020.0,10.9,0000.0,0010.79,0003.78,0002.99
2024-01-11 17:38:00,SystemResetWarning,0814.9,5.00,000.00,018.8,017.6,000.0,027.3,020.0,10.9,0000.0,0010.85,0003.72,0002.95
2024-01-11 17:39:00,SystemResetWarning,0814.9,5.00,000.00,018.8,017.6,000.0,027.3,020.0,10.8,0000.0,0010.12,0003.71,0002.93
2024-01-11 17:40:00,SystemResetWarning,0814.9,5.00,000.00,018.8,017.7,000.0,027.3,020.0,10.7,0000.0,0009.73,0003.67,0002.90
2024-01-11 17:41:00,SystemResetWarning,0815.0,5.00,000.00,018.8,017.9,000.0,027.3,020.2,10.5,0000.0,0009.46,0003.67,0002.86
2024-01-11 17:42:00,SystemResetWarning,0814.9,5.00,000.00,019.0,018.7,000.0,027.3,020.7,10.5,0000.0,0009.44,0003.67,0002.82
2024-01-11 17:43:00,SystemResetWarning,0814.9,4.99,000.00,019.1,019.4,000.0,027.3,021.0,10.3,0000.0,0009.34,0003.64,0002.76
2024-01-11 17:44:00,SystemResetWarning,0815.0,4.99,000.00,019.2,019.3,000.0,027.3,020.6,10.3,0000.0,0008.98,0003.61,0002.67
2024-01-11 17:45:00,SystemResetWarning,0814.9,5.00,000.00,019.1,019.1,000.0,027.3,020.2,10.2,0000.0,0009.27,0003.56,0002.62
2024-01-11 17:46:00,SystemResetWarning,0814.9,5.00,000.00,019.1,018.9,000.0,027.3,020.0,10.2,0000.0,0009.06,0003.51,0002.53
2024-01-11 17:47:00,SystemResetWarning,0814.9,5.00,000.00,019.0,018.7,000.0,027.3,020.0,10.1,0000.0,0008.63,0003.44,0002.42
2024-01-11 17:48:00,SystemResetWarning,0814.9,5.00,000.00,019.0,018.5,000.0,027.3,020.0,10.1,0000.0,0008.50,0003.34,0002.29
2024-01-11 17:49:00,SystemResetWarning,0814.9,5.00,000.00,019.0,018.4,000.0,027.3,020.0,10.1,0000.0,0007.91,0003.24,0002.16
2024-01-11 17:50:00,SystemResetWarning,0815.0,5.01,000.00,019.0,018.4,000.0,027.3,020.0,10.2,0000.0,0007.70,0003.13,0001.99
2024-01-11 17:51:00,SystemResetWarning,0814.9,5.01,000.00,019.0,018.3,000.0,027.3,020.0,10.2,0000.0,0007.50,0002.95,0001.83
2024-01-11 17:52:00,SystemResetWarning,0814.9,5.00,000.00,018.9,018.2,000.0,027.3,020.0,10.2,0000.0,0007.26,0002.73,0001.68
2024-01-11 17:53:00,SystemResetWarning,0815.0,5.00,000.00,018.9,018.1,000.0,027.3,020.0,10.3,0000.0,0006.83,0002.51,0001.53
2024-01-11 17:54:00,SystemResetWarning,0815.0,4.99,000.00,018.9,018.1,000.0,027.3,020.0,10.3,0000.0,0006.48,0002.37,0001.40
2024-01-11 17:55:00,SystemResetWarning,0815.0,4.99,000.00,018.9,018.2,000.0,027.3,020.3,10.3,0000.0,0006.24,0002.27,0001.31
2024-01-11 17:56:00,SystemResetWarning,0815.1,5.01,000.00,019.1,019.0,000.0,027.3,020.9,10.3,0000.0,0005.74,0002.20,0001.21
2024-01-11 17:57:00,SystemResetWarning,0815.1,5.00,000.00,019.2,019.5,000.0,027.4,020.9,10.2,0000.0,0005.37,0002.17,0001.15
2024-01-11 17:58:00,SystemResetWarning,0815.1,4.99,000.00,019.2,019.3,000.0,027.4,020.5,10.3,0000.0,0005.25,0002.17,0001.10
2024-01-11 17:59:00,SystemResetWarning,0815.1,5.01,000.00,019.2,019.1,000.0,027.4,020.2,10.3,0000.0,0005.64,0002.25,0001.08
